カタログに戻る

FLOCK 4BE 14

運用中科学SSO
NORAD 60517·PAYLOAD·🇺🇸 United States

打ち上げ Aug 16, 2024 から Vandenberg Space Force Base

Loading…

次のパス (今後24時間)

TLE

最新Source: CelesTrak SupGP

元期: Sep 15, 2026, 00:45 UTC

1 60517C 24149AG  26258.03135417  .00041506  00000+0  91122-3 0  2587
2 60517  97.3643 342.7300 0003225 338.6028  68.0235 15.44036119    13

AllMySatでFLOCK 4BE 14をリアルタイム追跡

Download on the App Store